W6CX Weather Reports


Display with metric or nautical units.
time (UTC)temp
F
wind
direction
speed
MPH
gust
MPH
rain 1hr
in
rain 24hr
in
rain mn
in
humidity
%
barometer
mb
20260506221550 64 196 2.0 6.0 0.00 0.00 0.00 65 1023.0
20260506220053 65 345 1.0 4.0 0.00 0.00 0.00 67 1023.2
20260506214548 65 138 1.0 6.0 0.00 0.00 0.00 68 1023.2
20260506213050 63 323 1.0 4.0 0.00 0.00 0.00 69 1023.3
20260506211551 64 120 1.0 6.0 0.00 0.00 0.00 68 1023.3
20260506210049 64 123 1.0 5.0 0.00 0.00 0.00 71 1023.4
20260506204553 63 15 2.0 7.0 0.00 0.00 0.00 70 1023.2
20260506203048 62 118 3.0 6.0 0.00 0.00 0.00 73 1023.5
20260506201552 62 124 1.0 5.0 0.00 0.00 0.00 74 1023.6
20260506200050 61 139 1.0 8.0 0.00 0.00 0.00 72 1023.7
20260506194550 61 176 1.0 5.0 0.00 0.00 0.00 72 1023.7
20260506193046 61 276 1.0 5.0 0.00 0.00 0.00 74 1023.6
20260506191547 60 103 2.0 6.0 0.00 0.00 0.00 77 1023.7
20260506190049 59 102 1.0 5.0 0.00 0.00 0.00 76 1023.9
20260506184550 57 67 2.0 5.0 0.00 0.00 0.00 79 1023.8
20260506183051 57 141 0.0 5.0 0.00 0.00 0.00 79 1023.7
20260506181549 57 255 0.0 6.0 0.00 0.00 0.00 78 1023.6
20260506180051 58 106 2.0 6.0 0.00 0.00 0.00 78 1023.5
20260506174555 58 75 0.0 7.0 0.00 0.00 0.00 79 1023.4
20260506173123 57 88 1.0 5.0 0.00 0.00 0.00 82 1023.4
20260506171549 56 110 1.0 6.0 0.00 0.00 0.00 83 1023.2
20260506170049 56 114 0.0 2.0 0.00 0.00 0.00 83 1023.0
20260506164555 55 96 0.0 6.0 0.00 0.01 0.00 84 1023.0
20260506163055 55 0 0.0 4.0 0.00 0.01 0.00 85 1023.0
20260506161554 54 86 0.0 1.0 0.00 0.01 0.00 86 1022.9
20260506160046 53 99 0.0 4.0 0.00 0.01 0.00 87 1022.8
20260506154551 51 0 0.0 2.0 0.00 0.01 0.00 89 1022.8
20260506153047 50 0 0.0 6.0 0.00 0.01 0.00 89 1022.9
20260506151550 50 0 0.0 2.0 0.00 0.01 0.00 89 1022.8
20260506150047 50 0 0.0 1.0 0.00 0.01 0.00 89 1022.6
20260506144547 50 0 0.0 3.0 0.00 0.01 0.00 90 1022.5
20260506143050 49 109 1.0 5.0 0.00 0.01 0.00 92 1022.3
20260506141549 48 113 1.0 5.0 0.00 0.01 0.00 92 1022.1
20260506140049 47 338 0.0 7.0 0.00 0.01 0.00 92 1022.0
20260506134545 47 120 2.0 11.0 0.00 0.01 0.00 92 1021.8
20260506133046 47 70 4.0 11.0 0.00 0.01 0.00 92 1021.6
20260506131550 46 360 6.0 12.0 0.00 0.01 0.00 92 1021.5
20260506130058 46 350 9.0 12.0 0.00 0.01 0.00 91 1021.4
20260506124554 47 32 5.0 11.0 0.00 0.01 0.00 91 1021.4
20260506123050 47 330 6.0 9.0 0.00 0.01 0.00 90 1021.4
20260506121547 48 18 2.0 5.0 0.00 0.01 0.00 90 1021.4
20260506120052 48 0 0.0 3.0 0.00 0.01 0.00 91 1021.3
20260506114550 48 0 0.0 2.0 0.00 0.02 0.00 92 1021.3
20260506113054 48 20 0.0 4.0 0.00 0.02 0.00 94 1021.1
20260506111549 48 27 0.0 3.0 0.00 0.02 0.00 95 1021.0
20260506110055 48 0 0.0 4.0 0.00 0.02 0.00 96 1020.8
20260506104553 48 0 0.0 3.0 0.00 0.04 0.00 96 1020.8
20260506103049 47 0 0.0 1.0 0.00 0.04 0.00 95 1020.8
20260506101552 46 97 0.0 2.0 0.00 0.04 0.00 95 1020.7
20260506094550 46 123 2.0 4.0 0.00 0.04 0.00 95 1020.6
20260506093049 46 104 1.0 4.0 0.00 0.04 0.00 96 1020.6
20260506091547 47 77 1.0 6.0 0.00 0.04 0.00 96 1020.6
20260506090052 47 0 0.0 1.0 0.00 0.04 0.00 96 1020.6
20260506084619 47 0 0.0 0.0 0.00 0.10 0.00 96 1020.7
20260506083046 47 0 0.0 2.0 0.00 0.10 0.00 96 1020.7
20260506081555 46 137 0.0 4.0 0.00 0.10 0.00 96 1020.8
20260506073051 46 0 0.0 1.0 0.00 0.13 0.00 96 1020.5
20260506071545 46 0 0.0 2.0 0.00 0.13 0.00 96 1020.5
20260506061548 46 0 0.0 2.0 0.00 0.15 0.13 96 1019.9
20260506044637 46 123 2.0 4.0 0.00 0.15 0.13 95 1019.6
20260506043049 46 125 1.0 3.0 0.00 0.15 0.13 95 1019.4
20260506041558 46 128 0.0 1.0 0.00 0.15 0.13 95 1019.0
20260506040050 47 0 0.0 0.0 0.00 0.15 0.13 95 1018.9
20260506034621 47 0 0.0 1.0 0.00 0.15 0.13 95 1018.9
20260506033043 47 0 0.0 2.0 0.00 0.15 0.13 95 1018.8
20260506031545 47 0 0.0 1.0 0.00 0.15 0.13 95 1018.4
20260506030051 47 0 0.0 0.0 0.00 0.15 0.13 95 1018.4
20260506024550 48 0 0.0 0.0 0.00 0.15 0.13 95 1018.2
20260506023104 47 0 0.0 0.0 0.00 0.15 0.13 94 1018.1
20260506021544 48 0 0.0 2.0 0.00 0.15 0.13 94 1018.0
20260506020048 48 0 0.0 0.0 0.00 0.15 0.13 94 1018.1
20260506014549 48 0 0.0 1.0 0.00 0.15 0.13 94 1017.8
20260506013049 48 0 0.0 1.0 0.00 0.15 0.13 94 1017.7
20260506011606 49 0 0.0 2.0 0.00 0.15 0.13 94 1017.8
20260506010054 49 0 0.0 3.0 0.00 0.15 0.13 93 1017.8
20260506004611 50 309 0.0 4.0 0.00 0.15 0.13 93 1017.8
20260506003103 49 0 1.0 3.0 0.00 0.15 0.13 93 1017.6
20260506001554 49 0 1.0 2.0 0.00 0.15 0.13 94 1017.6
20260506000050 49 27 0.0 2.0 0.00 0.15 0.13 94 1017.5
20260505234604 48 299 2.0 5.0 0.00 0.15 0.13 93 1017.6
20260505233052 49 0 0.0 3.0 0.00 0.15 0.13 94 1017.5
20260505231551 49 358 1.0 5.0 0.00 0.15 0.13 93 1017.7
20260505230053 50 0 0.0 3.0 0.00 0.15 0.13 94 1017.6
20260505224551 49 91 1.0 4.0 0.00 0.15 0.13 94 1017.6
20260505223048 48 0 0.0 3.0 0.00 0.15 0.13 93 1017.6